Location: Artiguedieu
(43.5000°N, 0.5454°E)
Time: 02:07:44
(UTC+00:00)

Transit 2A Rocket - Pass Details

Date: 28 July 2021
Orbit: 586 x 916 km, 66.7° (Epoch: 16 September)

Event Time Altitude Azimuth Distance (km) Brightness Sun altitude
Rises 16:40:02 0° 263° (W) 2,880 9.2 28.0°
Reaches altitude 10° 16:43:06 10° 286° (WNW) 2,026 8.7 27.4°
Maximum altitude 16:45:49 15° 323° (NW) 1,744 7.6 26.9°
Drops below altitude 10° 16:48:40 10° 359° (N) 2,138 7.4 26.4°
Sets 16:52:04 0° 22° (NNE) 3,135 8.0 25.8°
